www.pogodaiklimat.ru

Погода и климат >> Архив погоды >> Аргентина >> San Miguel de Tucuman


ПОГОДА в San Miguel de Tucuman

  • Прогноз погоды в San Miguel de Tucuman
  • Монитор погоды в San Miguel de Tucuman
  • Климат города

АРХИВ ПОГОДЫ в San Miguel de Tucuman

Время (UTC), дата Ветер
(напр.,м/с)
 
Видим.   Явления Облачность Т
(С)
Тd
(С)
f
(%)
Тe
(С)
Тes
(С)
Комфортность P
(гПа)
Po
(гПа)
Тmin
(С)
Tmax
(С)
R
(мм)
R24
(мм)
S
(см)
09 19.06 СЗ 4 15 км ясно +4.2 +1.8 84 -0 -0 1028.6 974.6
12 19.06 З 5 15 км ясно +4.8 +1.9 81 0 0 1029.7 975.6 +2.5 +10.2
15 19.06 С 5 15 км ясно +13.7 -5.3 26 +12 +16 1026.9 973.8
18 19.06 СВ 7 15 км ясно +16.4 -1.1 30 +15 +17 1023.3 970.4
21 19.06 СВ 6 15 км ясно +15.0 -0.8 34 +14 +14 1022.8 969.4
00 20.06 СВ 2 15 км ясно +7.8 +1.1 63 +6 +6 1024.5 970.5 +4.8 +17.0
03 20.06 З 3 15 км ясно +5.2 +1.3 76 +2 +2 1024.5 971.0
06 20.06 С 2 15 км ясно +3.8 +0.2 77 +1 +1 1023.7 970.4
09 20.06 Ю 2 15 км ясно +3.2 -0.5 77 0 0 1023.4 970.0
12 20.06 штиль 0 8000 м дымка ясно +2.7 -0.2 81 +2 +3 1025.5 971.2 +1.3 +8.3
15 20.06 Ю 2 6000 м дым ясно +9.6 -4.2 37 +9 +16 1024.1 970.2
18 20.06 С 2 6000 м дым ясно +14.8 -0.1 36 +15 +22 1019.2 966.0
21 20.06 ЮЗ 4 7000 м дым ясно +15.2 +2.4 42 +14 +14 1016.9 963.8
00 21.06 ЮЗ 3 10 км ясно +8.0 +1.9 65 +6 +6 1018.9 965.0 +2.7 +16.0
03 21.06 СЗ 2 8000 м дым ясно +4.3 +1.6 83 +2 +2 1018.1 964.5
06 21.06 З 3 8000 м дым ясно +3.6 +1.1 84 -0 -0 1016.4 963.3
09 21.06 СЗ 3 15 км ясно +4.9 +1.7 80 +1 +1 1015.2 962.4
12 21.06 З 3 15 км ясно +4.8 +2.2 83 +2 +2 1018.1 964.4 +2.5 +8.0
15 21.06 штиль 0 12 км ясно +13.6 +3.0 49 +13 +24 опасность
простуды
1017.0 963.8
18 21.06 штиль 0 9000 м ясно +17.3 +4.5 43 +17 +27 1013.3 960.6
21 21.06 ЮЗ 4 9000 м дым ясно +16.1 +6.2 52 +16 +16 1011.7 959.0
00 22.06 СЗ 1 9000 м дым ясно +10.2 +5.1 71 +10 +10 1013.0 959.8 +4.8 +19.0
03 22.06 С 2 8000 м дым ясно +7.0 +3.4 78 +5 +5 1010.9 958.2
06 22.06 З 5 12 км ясно +7.2 +4.5 83 +3 +3 1006.8 954.8
09 22.06 С 2 12 км ясно +6.2 +2.9 79 +4 +4 1005.3 953.2
12 22.06 З 3 12 км ясно +7.0 +4.8 86 +4 +5 1006.7 954.0 +4.4 +10.2
15 22.06 ЮВ 3 9000 м дым ясно +17.4 +9.7 61 +18 +25 1005.6 953.6
18 22.06 ЮВ 2 9000 м дым ясно +22.4 +10.0 45 +24 +31 комфорт 1002.2 950.9
21 22.06 Ю 3 9000 м дым ясно +20.4 +9.5 50 +22 +22 комфорт 1003.1 951.4
00 23.06 штиль 0 6000 м дым ясно +13.2 +8.1 71 +13 +13 1006.1 953.7 +7.0 +22.5
03 23.06 С 2 7000 м дым ясно +11.0 +9.9 93 +10 +10 1005.5 953.8
06 23.06 З 4 8000 м дым ясно +9.8 +8.0 89 +7 +7 1004.8 953.4
09 23.06 СЗ 4 8000 м дым ясно +10.5 +9.1 91 +8 +8 1005.6 954.2
12 23.06 СЗ 4 15 км ясно +11.4 +9.1 86 +9 +10 1008.4 956.2 +9.5 +13.1
15 23.06 З 2 8000 м дым ясно +20.6 +11.3 55 +23 +31 комфорт 1008.3 956.8
18 23.06 штиль 0 8000 м дым ясно +24.4 +13.7 51 +27 +36 жарко 1005.6 954.5
21 23.06 СВ 2 8000 м дым ясно +23.3 +13.5 54 +27 +27 душно 1007.0 955.8
00 24.06 штиль 0 5000 м дым ясно +16.9 +12.9 77 +17 +17 1009.9 958.1 +11.4 +25.0
03 24.06 З 5 8000 м дым ясно +14.2 +12.1 87 +12 +12 1009.9 958.6
06 24.06 С 4 12 км 4/4 1200 м
[Sc]
+13.2 +11.0 87 +11 +11 1010.4 959.3
09 24.06 З 4 12 км ясно +13.0 +10.8 86 +11 +11 1010.2 959.0
12 24.06 СЗ 3 8000 м дым 8/8 1350 м
[Sc]
+15.4 +12.4 82 +15 +15 1012.5 960.9 +12.2 +16.9
15 24.06 ЮЗ 3 8000 м 8/8 1350 м
[]
+18.7 +13.6 72 +20 +21 1013.0 961.4
18 24.06 ЮЗ 2 8000 м дым 3/3 1350 м
[Sc]
+23.5 +14.5 57 +26 +31 жарко 1009.3 958.2
21 24.06 СВ 3 6000 м дым 4/0
[Ac trans]
+24.0 +15.1 57 +27 +27 жарко 1008.3 957.3
00 25.06 штиль 0 6000 м дым ясно +17.2 +13.8 80 +17 +17 1009.4 958.0 +15.4 +25.4
03 25.06 СЗ 3 6000 м дым ясно +14.0 +11.8 87 +13 +13 1009.7 958.2
06 25.06 СЗ 3 8000 м дым ясно +15.1 +12.8 86 +15 +15 1006.3 955.4
09 25.06 ЮВ 2 6000 м дым ясно +11.8 +10.3 91 +11 +11 1006.0 955.0
12 25.06 З 2 6000 м дымка туман 4/0
[Cs]
+11.5 +10.6 94 +10 +11 1007.9 956.2 +10.6 +17.2
15 25.06 ЮВ 2 8000 м дым 4/0
[Cs]
+21.9 +14.3 62 +25 +33 комфорт 1006.2 955.2
18 25.06 Ю 3 8000 м дым 6/0
[Cs]
+24.2 +14.0 53 +27 +32 жарко 1004.0 953.4
21 25.06 Ю 4 8000 м дым 5/0
[Cs]
+23.4 +15.7 62 +28 +28 душно 1004.6 953.6
00 26.06 штиль 0 6000 м дым 4/0
[Ac trans]
+18.9 +14.7 77 +20 +20 1006.4 954.9 +11.5 +25.2
03 26.06 С 2 8000 м дым ясно +16.2 +14.2 88 +16 +16 1005.9 955.0
06 26.06 С 3 12 км ясно +15.0 +12.9 87 +14 +14 1004.1 953.5

 

Местоположение метеостанции San Miguel de Tucuman (Аргентина): широта -26.85 долгота -65.09 высота над уровнем моря 450 м.

В архиве по умолчанию представлена погода в San Miguel de Tucuman за последнюю неделю. Архивные данные за месяц целиком и за предыдущие месяцы, начиная с января 2011 года, Вы можете получить, выбрав интересующий диапазон дат из раскрывающегося списка и нажав кнопку "Ввод!".

Внимание! Время в таблицах - всемирное. Для получения местного времени необходимо прибавить поправку, которая в San Miguel de Tucuman равна -3 ч.

Смотрите также архив погоды в соседних городах и на ближайших метеорологических станциях:

Погода в Santiago del Estero (Аргентина) (128 км)
Погода в San Fernando del Valle de Catamarca (Аргентина) (206 км)
Погода в Salta (Аргентина) (226 км)
Погода в San Salvador de Jujuy (Аргентина) (275 км)
Погода в La Rioja (Аргентина) (328 км)
Погода в Villa de Maria del Rio Seco (Аргентина) (366 км)
Погода в Chamical (Аргентина) (407 км)
Погода в San Ramon de la Nueva Oran (Аргентина) (419 км)
Погода в Ceres (Аргентина) (456 км)
Погода в Presidencia Roque Saenz Pena (Аргентина) (458 км)

Пояснения к столбцам:

Ветер - указаны скорость ветра в м/с - средняя за 10 мин, порывы в срок и между сроками (в фигурных скобках) и направление, откуда дует ветер: С - северный, СВ - северо-восточный, В - восточный, ЮВ - юго-восточный, Ю - южный, ЮЗ - юго-западный, З - западный, СЗ - северо-западный.
Видимость - горизонтальная дальность видимости в метрах или километрах. При видимости от 1 до 10 км при отсутствии осадков обычно наблюдается дымка, при ухудшении видимости до 1 км и менее - туман. В сухую погоду видимость может ухудшаться дымом, пылью или мглою.
Явления - указаны атмосферные явления, наблюдавшиеся в срок или в последний час перед сроком; фигурными скобками обозначены явления, наблюдавшиеся между сроками (за 1-3 часа до срока); квадратными скобками обозначены град или гололедные отложения с указанием их диаметра в мм.
Облачность - указаны через наклонную черту общая и нижняя облачность в баллах и высота нижней границы облаков в метрах; квадратными скобками обозначены формы облаков: Ci - перистые, Cs - перисто-слоистые, Cc - перисто-кучевые, Ac - высококучевые, As - высокослоистые, Sc - слоисто-кучевые, Ns - слоисто-дождевые, Cu - кучевые, Cb - кучево-дождевые. Подробнее классификацию облаков см. в Атласе облаков (PDF).
T - Температура воздуха - температура, измеренная на высоте 2 м над землей.
Td - Температура точки росы - температура, при понижении до которой содержащийся в воздухе водяной пар достигнет насыщения.
f - Относительная влажность воздуха - влажноcть воздуха, измеренная на высоте 2 м над землей.
Te - Эффективная температура - температура, которую ощущает одетый по сезону человек в тени. Характеристика душности погоды. При расчете учитывается влияние влажности воздуха и скорости ветра на теплоощущения человека.
Tes - Эффективная температура на солнце - температура, которую ощущает человек, с поправкой на солнечный нагрев. Характеристика знойности погоды. Зависит от высоты солнца над горизонтом, облачности и скорости ветра. Ночью, в пасмурную погоду, а также при ветре 12 м/с и более поправка равна нулю.
P - Атмосферное давление - приведенное к уровню моря атмосферное давление.
Po - Атмосферное давление - измеренное на уровне метеостанции атмосферное давление.
Tmin - Минимальная температура - минимум температуры воздуха на высоте 2 м над землей.
Tmax - Максимальная температура - максимум температуры воздуха на высоте 2 м над землей.
R - Количество осадков - Количество выпавших осадков за период времени, мм. При наведении курсора мыши на число - период времени, за который выпало указанное количество осадков.
R24 - Количество осадков - Количество выпавших осадков за 24 часа, мм.
S - Снежный покров - Высота снежного покрова, см. При наведении курсора мыши на число - состояние снежного покрова и степень покрытия местности в баллах.